Location: Acheville
(50.3840°N, 2.8827°E)
Time: 17:52:35
(UTC+00:00)

Cosmos 1825 Rocket - Pass Details

Date: 24 October 2021
Orbit: 604 x 630 km, 82.5° (Epoch: 06 December)

Event Time Altitude Azimuth Distance (km) Brightness Sun altitude
Rises 18:06:16 0° 356° (N) 2,880 7.0 -14.6°
Reaches altitude 10° 18:08:41 10° 6° (N) 1,968 6.1 -15.0°
Maximum altitude 18:12:38 33° 71° (ENE) 1,035 4.2 -15.6°
Enters shadow 18:13:49 28° 103° (ESE) 1,150 4.4 -15.8°
